FW2194 Weather Reports


time (UTC)temp
C
wind
direction
speed
KPH
gust
KPH
rain 1hr
cm
rain 24hr
cm
rain mn
cm
humidity
%
barometer
mb
20220124094902 0 307 4.8 12.9 0.00 0.00 0.00 70 1013.1
20220124094402 0 328 6.4 11.3 0.00 0.00 0.00 70 1012.7
20220124093902 0 345 4.8 16.1 0.00 0.00 0.00 71 1012.7
20220124093402 0 339 4.8 14.5 0.00 0.00 0.00 71 1012.7
20220124092903 0 353 8.0 19.3 0.00 0.00 0.00 71 1012.5
20220124092403 0 344 8.0 19.3 0.00 0.00 0.00 72 1012.5
20220124091902 0 328 8.0 19.3 0.00 0.00 0.00 72 1012.5
20220124091402 0 344 9.7 24.1 0.00 0.00 0.00 75 1012.2
20220124090903 0 339 8.0 20.9 0.00 0.00 0.00 80 1012.2
20220124090402 0 333 6.4 14.5 0.00 0.00 0.00 84 1012.2
20220124085902 0 317 4.8 8.0 0.00 0.00 0.00 85 1012.0
20220124085402 0 318 1.6 4.8 0.00 0.00 0.00 84 1012.0
20220124084903 0 288 1.6 4.8 0.00 0.00 0.00 84 1012.0
20220124084404 0 284 3.2 4.8 0.00 0.00 0.00 83 1012.1
20220124083902 0 305 3.2 4.8 0.00 0.00 0.00 83 1012.1
20220124083402 0 309 3.2 4.8 0.00 0.00 0.00 83 1012.1
20220124082903 0 325 3.2 4.8 0.00 0.00 0.00 82 1011.7
20220124082402 0 275 1.6 4.8 0.00 0.00 0.00 82 1011.7
20220124081903 0 302 3.2 4.8 0.00 0.00 0.00 82 1011.7
20220124081402 0 257 3.2 4.8 0.00 0.00 0.00 82 1011.7
20220124080903 0 246 1.6 4.8 0.00 0.00 0.00 82 1011.7
20220124080403 0 249 1.6 4.8 0.00 0.00 0.00 81 1011.7
20220124075903 0 265 1.6 4.8 0.00 0.00 0.00 81 1011.5
20220124075402 0 265 1.6 3.2 0.00 0.00 0.00 80 1011.5
20220124074903 0 265 1.6 4.8 0.00 0.00 0.00 80 1011.5
20220124074404 0 314 0.0 3.2 0.00 0.00 0.00 80 1011.2
20220124073903 1 314 0.0 3.2 0.00 0.00 0.00 79 1011.2
20220124073403 1 314 0.0 1.6 0.00 0.00 0.00 79 1011.2
20220124072903 1 314 0.0 1.6 0.00 0.00 0.00 79 1011.1
20220124072404 1 315 3.2 8.0 0.00 0.00 0.00 79 1011.1
20220124071902 1 260 1.6 4.8 0.00 0.00 0.00 79 1011.1
20220124071403 1 263 0.0 1.6 0.00 0.00 0.00 79 1010.7
20220124070903 1 263 1.6 1.6 0.00 0.00 0.00 78 1010.7
20220124070402 1 263 1.6 3.2 0.00 0.00 0.00 78 1010.7
20220124065904 1 263 1.6 4.8 0.00 0.00 0.00 78 1010.6
20220124065402 0 340 3.2 4.8 0.00 0.00 0.00 78 1010.6
20220124064903 0 313 1.6 3.2 0.00 0.00 0.00 78 1010.6
20220124064402 0 313 1.6 4.8 0.00 0.00 0.00 79 1010.6
20220124063903 0 297 1.6 3.2 0.00 0.00 0.00 79 1010.6
20220124063402 0 297 3.2 4.8 0.00 0.00 0.00 80 1010.6
20220124062903 0 305 0.0 4.8 0.00 0.00 0.00 80 1010.6
20220124062404 0 298 1.6 8.0 0.00 0.00 0.00 79 1010.6
20220124061902 0 170 0.0 0.0 0.00 0.00 0.00 79 1010.6
20220124061402 -1 170 0.0 0.0 0.00 0.00 0.00 78 1010.6
20220124060902 -1 170 0.0 0.0 0.00 0.00 0.00 78 1010.6
20220124060402 -1 170 0.0 0.0 0.00 0.00 0.00 78 1010.6
20220124055903 -1 170 0.0 0.0 0.00 0.00 0.00 78 1010.7
20220124055402 -1 170 0.0 0.0 0.00 0.00 0.00 77 1010.7
20220124054903 -1 170 0.0 0.0 0.00 0.00 0.00 77 1010.7
20220124054402 -1 170 0.0 0.0 0.00 0.00 0.00 77 1010.6
20220124053903 -1 170 0.0 3.2 0.00 0.00 0.00 77 1010.6
20220124053402 -1 170 1.6 3.2 0.00 0.00 0.00 77 1010.6
20220124052903 -1 170 1.6 3.2 0.00 0.00 0.00 79 1010.6
20220124052402 -1 170 0.0 1.6 0.00 0.00 0.00 79 1010.6
20220124051903 -1 170 0.0 1.6 0.00 0.00 0.00 80 1010.6
20220124051403 -1 170 0.0 3.2 0.00 0.00 0.00 80 1010.6
20220124050902 -1 170 1.6 3.2 0.00 0.00 0.00 79 1010.6
20220124050403 -1 170 1.6 1.6 0.00 0.00 0.00 79 1010.6
20220124045902 -1 170 0.0 1.6 0.00 0.00 0.00 78 1010.6
20220124045403 -1 170 0.0 0.0 0.00 0.00 0.00 77 1010.6
20220124044902 -1 170 0.0 3.2 0.00 0.00 0.00 77 1010.6
20220124044402 -1 170 0.0 1.6 0.00 0.00 0.00 75 1010.3
20220124043903 -1 170 0.0 0.0 0.00 0.00 0.00 74 1010.3
20220124043402 -1 170 0.0 0.0 0.00 0.00 0.00 74 1010.3
20220124042903 -1 170 0.0 0.0 0.00 0.00 0.00 74 1010.2
20220124042402 -1 170 0.0 0.0 0.00 0.00 0.00 73 1010.2
20220124041903 0 170 0.0 0.0 0.00 0.00 0.00 73 1010.2
20220124041403 0 170 0.0 0.0 0.00 0.00 0.00 74 1010.3
20220124040903 0 170 0.0 4.8 0.00 0.00 0.00 74 1010.3
20220124040403 0 170 0.0 4.8 0.00 0.00 0.00 74 1010.3
20220124035903 0 170 0.0 0.0 0.00 0.00 0.00 75 1010.2
20220124035402 0 170 0.0 0.0 0.00 0.00 0.00 75 1010.2
20220124034903 0 170 1.6 3.2 0.00 0.00 0.00 74 1010.2
20220124034402 0 170 3.2 4.8 0.00 0.00 0.00 75 1010.2
20220124033905 0 170 1.6 3.2 0.00 0.00 0.00 75 1010.2
20220124033402 0 170 1.6 3.2 0.00 0.00 0.00 76 1010.2
20220124032903 0 170 1.6 3.2 0.00 0.00 0.00 75 1010.2
20220124032403 0 170 0.0 0.0 0.00 0.00 0.00 76 1010.2
20220124031902 0 170 0.0 0.0 0.00 0.00 0.00 77 1010.2
20220124031403 0 170 0.0 0.0 0.00 0.00 0.00 76 1010.2
20220124030903 0 170 0.0 0.0 0.00 0.00 0.00 75 1010.2
20220124030402 0 170 0.0 0.0 0.00 0.00 0.00 75 1010.2
20220124025902 0 170 0.0 0.0 0.00 0.00 0.00 75 1009.9
20220124025403 0 170 0.0 0.0 0.00 0.00 0.00 75 1009.9
20220124024903 0 170 0.0 0.0 0.00 0.00 0.00 74 1009.9
20220124024403 0 170 0.0 1.6 0.00 0.00 0.00 73 1009.8
20220124023903 0 170 0.0 3.2 0.00 0.00 0.00 74 1009.8
20220124023403 0 170 0.0 0.0 0.00 0.00 0.00 73 1009.8
20220124022904 0 170 0.0 0.0 0.00 0.00 0.00 73 1009.9
20220124022403 0 170 0.0 0.0 0.00 0.00 0.00 72 1009.9
20220124021902 0 170 0.0 0.0 0.00 0.00 0.00 73 1009.9
20220124021403 0 170 0.0 0.0 0.00 0.00 0.00 73 1010.1
20220124020903 0 170 0.0 0.0 0.00 0.00 0.00 73 1010.1
20220124020404 0 170 0.0 0.0 0.00 0.00 0.00 72 1010.1
20220124015903 0 170 0.0 0.0 0.00 0.00 0.00 71 1010.1
20220124015404 0 170 0.0 0.0 0.00 0.00 0.00 71 1010.1
20220124014903 0 170 0.0 1.6 0.00 0.00 0.00 69 1010.1
20220124014403 0 170 1.6 3.2 0.00 0.00 0.00 70 1010.1
20220124013903 0 170 0.0 3.2 0.00 0.00 0.00 69 1010.1
20220124013403 0 170 1.6 3.2 0.00 0.00 0.00 70 1010.1
20220124012903 0 170 0.0 0.0 0.00 0.00 0.00 70 1009.9
20220124012403 0 170 0.0 0.0 0.00 0.00 0.00 68 1009.9
20220124011903 0 170 0.0 1.6 0.00 0.00 0.00 67 1009.9
20220124011404 0 170 0.0 1.6 0.00 0.00 0.00 69 1009.9
20220124010902 0 170 0.0 0.0 0.00 0.00 0.00 69 1009.9
20220124010403 0 170 0.0 0.0 0.00 0.00 0.00 70 1009.9
20220124005903 0 170 0.0 0.0 0.00 0.00 0.00 67 1009.8
20220124005403 0 170 0.0 0.0 0.00 0.00 0.00 68 1009.8
20220124004902 0 170 0.0 0.0 0.00 0.00 0.00 67 1009.8
20220124004403 0 170 0.0 1.6 0.00 0.00 0.00 66 1009.6
20220124003902 0 170 1.6 3.2 0.00 0.00 0.00 65 1009.6
20220124003403 0 170 1.6 3.2 0.00 0.00 0.00 66 1009.6
20220124002903 0 170 0.0 0.0 0.00 0.00 0.00 64 1009.5
20220124002403 0 170 0.0 0.0 0.00 0.00 0.00 64 1009.5
20220124001903 0 170 0.0 0.0 0.00 0.00 0.00 63 1009.5
20220124001403 0 170 0.0 0.0 0.00 0.00 0.00 60 1009.4
20220124000903 0 170 0.0 0.0 0.00 0.00 0.00 62 1009.4
20220124000403 1 170 0.0 0.0 0.00 0.00 0.00 62 1009.4
20220123235904 1 170 0.0 0.0 0.00 0.00 0.00 61 1009.4
20220123235403 1 170 0.0 0.0 0.00 0.00 0.00 61 1009.4
20220123234905 1 170 0.0 0.0 0.00 0.00 0.00 61 1009.4
20220123234403 1 170 0.0 1.6 0.00 0.00 0.00 60 1009.5
20220123233903 1 170 0.0 3.2 0.00 0.00 0.00 59 1009.5
20220123233403 1 170 1.6 3.2 0.00 0.00 0.00 59 1009.5
20220123232903 1 170 1.6 3.2 0.00 0.00 0.00 56 1009.3
20220123232403 1 170 0.0 0.0 0.00 0.00 0.00 56 1009.3
20220123231904 1 170 0.0 1.6 0.00 0.00 0.00 56 1009.3
20220123231403 1 170 0.0 0.0 0.00 0.00 0.00 56 1009.2
20220123230903 1 170 0.0 1.6 0.00 0.00 0.00 53 1009.2
20220123230403 2 170 0.0 1.6 0.00 0.00 0.00 56 1009.2
20220123225903 2 170 0.0 1.6 0.00 0.00 0.00 52 1009.1
20220123225403 2 170 0.0 1.6 0.00 0.00 0.00 52 1009.1
20220123224903 2 170 0.0 4.8 0.00 0.00 0.00 52 1009.1
20220123224403 2 170 1.6 4.8 0.00 0.00 0.00 52 1009.1
20220123223903 2 170 1.6 3.2 0.00 0.00 0.00 52 1009.1
20220123223402 2 170 1.6 4.8 0.00 0.00 0.00 52 1009.1
20220123222903 2 170 1.6 4.8 0.00 0.00 0.00 52 1009.1
20220123222403 2 170 1.6 4.8 0.00 0.00 0.00 53 1009.1
20220123221903 2 198 3.2 11.3 0.00 0.00 0.00 52 1009.1
20220123221403 2 188 3.2 8.0 0.00 0.00 0.00 52 1009.2
20220123220903 2 202 1.6 4.8 0.00 0.00 0.00 52 1009.2
20220123220403 2 163 3.2 4.8 0.00 0.00 0.00 52 1009.2
20220123215903 2 161 1.6 4.8 0.00 0.00 0.00 51 1009.2
20220123215403 2 161 1.6 4.8 0.00 0.00 0.00 51 1009.2
20220123214903 2 163 3.2 4.8 0.00 0.00 0.00 50 1009.2
20220123214403 2 160 3.2 4.8 0.00 0.00 0.00 50 1009.3
20220123213903 2 155 3.2 4.8 0.00 0.00 0.00 51 1009.3
20220123213403 2 155 1.6 4.8 0.00 0.00 0.00 51 1009.3
20220123212903 2 155 3.2 4.8 0.00 0.00 0.00 50 1009.4
20220123212403 2 152 1.6 4.8 0.00 0.00 0.00 50 1009.4
20220123211903 2 191 4.8 8.0 0.00 0.00 0.00 50 1009.4
20220123211403 2 161 3.2 4.8 0.00 0.00 0.00 49 1009.6
20220123210903 2 149 1.6 4.8 0.00 0.00 0.00 50 1009.6
20220123210403 2 198 1.6 4.8 0.00 0.00 0.00 51 1009.6
20220123205903 2 198 3.2 8.0 0.00 0.00 0.00 51 1009.8
20220123205403 2 194 3.2 8.0 0.00 0.00 0.00 49 1009.8
20220123204903 2 200 4.8 4.8 0.00 0.00 0.00 49 1009.8
20220123204403 2 133 3.2 8.0 0.00 0.00 0.00 49 1009.9
20220123203904 2 206 3.2 4.8 0.00 0.00 0.00 50 1009.9
20220123203403 2 206 4.8 8.0 0.00 0.00 0.00 49 1009.9
20220123202903 2 209 4.8 9.7 0.00 0.00 0.00 49 1010.0
20220123202404 2 190 6.4 11.3 0.00 0.00 0.00 48 1010.0
20220123201903 2 173 1.6 9.7 0.00 0.00 0.00 48 1010.0
20220123201403 2 190 3.2 4.8 0.00 0.00 0.00 48 1010.0
20220123200903 2 199 6.4 16.1 0.00 0.00 0.00 48 1010.0
20220123200403 2 198 8.0 11.3 0.00 0.00 0.00 47 1010.0
20220123195904 3 172 6.4 14.5 0.00 0.00 0.00 47 1010.1
20220123195403 3 200 6.4 11.3 0.00 0.00 0.00 47 1010.1
20220123194903 3 189 8.0 19.3 0.00 0.00 0.00 47 1010.1
20220123194405 3 179 4.8 14.5 0.00 0.00 0.00 47 1010.3
20220123193903 3 220 3.2 8.0 0.00 0.00 0.00 48 1010.3
20220123193403 3 205 6.4 16.1 0.00 0.00 0.00 46 1010.3
20220123192903 3 211 3.2 11.3 0.00 0.00 0.00 49 1010.8
20220123192404 3 219 4.8 14.5 0.00 0.00 0.00 48 1010.8
20220123191903 3 147 4.8 9.7 0.00 0.00 0.00 47 1010.8
20220123191403 3 155 4.8 11.3 0.00 0.00 0.00 47 1011.1
20220123190903 3 190 4.8 11.3 0.00 0.00 0.00 49 1011.1
20220123190403 3 158 3.2 8.0 0.00 0.00 0.00 49 1011.1
20220123185903 3 173 3.2 8.0 0.00 0.00 0.00 48 1011.4
20220123185404 2 192 3.2 9.7 0.00 0.00 0.00 48 1011.4
20220123184903 2 172 4.8 11.3 0.00 0.00 0.00 49 1011.4
20220123184403 2 213 8.0 14.5 0.00 0.00 0.00 49 1011.4
20220123183903 2 193 8.0 16.1 0.00 0.00 0.00 49 1011.4
20220123183403 2 190 8.0 14.5 0.00 0.00 0.00 47 1011.4
20220123182903 3 179 6.4 11.3 0.00 0.00 0.00 48 1011.8
20220123182403 3 201 4.8 16.1 0.00 0.00 0.00 49 1011.8
20220123181905 3 202 8.0 19.3 0.00 0.00 0.00 47 1011.8
20220123181403 3 182 4.8 9.7 0.00 0.00 0.00 48 1011.9
20220123180903 3 219 6.4 12.9 0.00 0.00 0.00 47 1011.9
20220123180403 3 194 8.0 19.3 0.00 0.00 0.00 47 1011.9
20220123175903 3 180 4.8 19.3 0.00 0.00 0.00 47 1012.4
20220123175403 3 143 8.0 14.5 0.00 0.00 0.00 46 1012.4
20220123174903 3 205 4.8 9.7 0.00 0.00 0.00 48 1012.4
20220123174403 2 194 3.2 9.7 0.00 0.00 0.00 48 1012.8
20220123173903 2 189 6.4 9.7 0.00 0.00 0.00 48 1012.8
20220123173403 2 179 4.8 9.7 0.00 0.00 0.00 46 1012.8
20220123172903 2 154 8.0 16.1 0.00 0.00 0.00 47 1013.0
20220123172405 2 198 9.7 14.5 0.00 0.00 0.00 46 1013.0
20220123171904 2 185 6.4 9.7 0.00 0.00 0.00 47 1013.0
20220123171403 2 209 4.8 14.5 0.00 0.00 0.00 50 1013.3
20220123170904 2 194 4.8 14.5 0.00 0.00 0.00 46 1013.3
20220123170405 2 178 4.8 12.9 0.00 0.00 0.00 47 1013.3
20220123165904 1 193 6.4 11.3 0.00 0.00 0.00 46 1013.9
20220123165403 1 194 4.8 8.0 0.00 0.00 0.00 47 1013.9
20220123164905 1 141 3.2 9.7 0.00 0.00 0.00 46 1013.9
20220123163902 1 163 4.8 9.7 0.00 0.00 0.00 44 1013.9
20220123163403 1 166 3.2 9.7 0.00 0.00 0.00 46 1013.9
20220123162903 1 164 3.2 4.8 0.00 0.00 0.00 47 1014.4
20220123162403 1 116 4.8 9.7 0.00 0.00 0.00 45 1014.4
20220123161903 1 206 6.4 11.3 0.00 0.00 0.00 48 1014.4
20220123161403 1 214 4.8 11.3 0.00 0.00 0.00 48 1014.7
20220123160902 1 188 8.0 14.5 0.00 0.00 0.00 48 1014.7
20220123160402 1 218 4.8 11.3 0.00 0.00 0.00 49 1014.7
20220123155903 1 158 3.2 4.8 0.00 0.00 0.00 50 1014.9
20220123155403 1 179 4.8 8.0 0.00 0.00 0.00 52 1014.9
20220123154902 0 182 4.8 8.0 0.00 0.00 0.00 52 1014.9
20220123154403 0 184 4.8 8.0 0.00 0.00 0.00 53 1015.1
20220123153902 0 200 3.2 11.3 0.00 0.00 0.00 55 1015.1
20220123153403 0 176 4.8 9.7 0.00 0.00 0.00 57 1015.1
20220123152902 0 183 4.8 8.0 0.00 0.00 0.00 55 1015.3
20220123152403 0 202 4.8 8.0 0.00 0.00 0.00 57 1015.3
20220123151903 -1 198 3.2 11.3 0.00 0.00 0.00 61 1015.3
20220123151403 -1 196 3.2 11.3 0.00 0.00 0.00 62 1015.6
20220123150903 -1 182 3.2 8.0 0.00 0.00 0.00 62 1015.6
20220123150403 -2 167 3.2 4.8 0.00 0.00 0.00 63 1015.6
20220123145903 -2 171 3.2 4.8 0.00 0.00 0.00 65 1015.7
20220123145403 -2 173 3.2 8.0 0.00 0.00 0.00 65 1015.7
20220123144905 -3 190 3.2 4.8 0.00 0.00 0.00 66 1015.7
20220123144403 -3 184 4.8 8.0 0.00 0.00 0.00 67 1016.0
20220123143903 -3 193 4.8 8.0 0.00 0.00 0.00 69 1016.0
20220123143403 -4 218 3.2 4.8 0.00 0.00 0.00 71 1016.0
20220123142903 -5 219 1.6 3.2 0.00 0.00 0.00 73 1016.2
20220123142404 -5 218 1.6 4.8 0.00 0.00 0.00 75 1016.2
20220123141903 -5 283 0.0 0.0 0.00 0.00 0.00 77 1016.2
20220123141403 -5 283 0.0 0.0 0.00 0.00 0.00 76 1016.2
20220123140904 -5 283 0.0 0.0 0.00 0.00 0.00 76 1016.2
20220123135904 -5 283 0.0 1.6 0.00 0.00 0.00 80 1016.6
20220123135405 -6 283 1.6 1.6 0.00 0.00 0.00 80 1016.6
20220123132904 -6 283 0.0 0.0 0.00 0.00 0.00 84 1016.9
20220123132404 -6 283 0.0 0.0 0.00 0.00 0.00 84 1016.9
20220123131903 -6 283 0.0 0.0 0.00 0.00 0.00 84 1016.9
20220123131403 -7 283 0.0 3.2 0.00 0.00 0.00 85 1017.2
20220123130903 -7 298 1.6 3.2 0.00 0.00 0.00 85 1017.2
20220123130404 -7 298 0.0 0.0 0.00 0.00 0.00 85 1017.2
20220123125903 -7 298 0.0 0.0 0.00 0.00 0.00 84 1017.3
20220123125405 -7 298 0.0 0.0 0.00 0.00 0.00 84 1017.3
20220123124903 -7 298 0.0 1.6 0.00 0.00 0.00 84 1017.3
20220123124403 -7 298 0.0 1.6 0.00 0.00 0.00 84 1017.3
20220123123903 -7 298 0.0 0.0 0.00 0.00 0.00 84 1017.3
20220123123404 -7 298 0.0 0.0 0.00 0.00 0.00 83 1017.3
20220123122903 -7 298 0.0 0.0 0.00 0.00 0.00 83 1017.6
20220123122403 -7 298 0.0 0.0 0.00 0.00 0.00 82 1017.6
20220123121903 -7 298 0.0 0.0 0.00 0.00 0.00 83 1017.6
20220123121403 -7 298 0.0 0.0 0.00 0.00 0.00 82 1017.5
20220123120904 -7 298 0.0 0.0 0.00 0.00 0.00 82 1017.5
20220123120403 -7 298 0.0 0.0 0.00 0.00 0.00 82 1017.5
20220123115903 -7 298 0.0 0.0 0.00 0.00 0.00 81 1017.6
20220123115403 -7 298 0.0 0.0 0.00 0.00 0.00 81 1017.6
20220123114904 -7 298 0.0 0.0 0.00 0.00 0.00 81 1017.6
20220123114403 -7 298 0.0 0.0 0.00 0.00 0.00 80 1017.8
20220123113904 -7 298 0.0 0.0 0.00 0.00 0.00 80 1017.8
20220123113404 -7 298 1.6 1.6 0.00 0.00 0.00 80 1017.8
20220123112903 -7 298 1.6 3.2 0.00 0.00 0.00 81 1017.7
20220123112403 -7 298 0.0 0.0 0.00 0.00 0.00 81 1017.7
20220123111903 -7 298 1.6 1.6 0.00 0.00 0.00 80 1017.7
20220123111403 -7 298 0.0 1.6 0.00 0.00 0.00 80 1017.6
20220123110903 -7 298 1.6 3.2 0.00 0.00 0.00 80 1017.6
20220123110403 -7 327 0.0 1.6 0.00 0.00 0.00 80 1017.6
20220123105903 -7 340 1.6 3.2 0.00 0.00 0.00 79 1017.7
20220123105403 -8 340 3.2 4.8 0.00 0.00 0.00 81 1017.7
20220123104905 -8 340 3.2 4.8 0.00 0.00 0.00 82 1017.7
20220123104404 -8 341 4.8 4.8 0.00 0.00 0.00 82 1017.8
20220123103904 -8 252 3.2 4.8 0.00 0.00 0.00 82 1017.8
20220123103403 -8 242 0.0 4.8 0.00 0.00 0.00 82 1017.8
20220123102903 -8 242 0.0 0.0 0.00 0.00 0.00 83 1017.9
20220123102403 -8 242 0.0 0.0 0.00 0.00 0.00 83 1017.9
20220123101904 -8 242 0.0 0.0 0.00 0.00 0.00 82 1017.9
20220123101403 -8 242 0.0 0.0 0.00 0.00 0.00 81 1017.9
20220123100903 -8 242 0.0 0.0 0.00 0.00 0.00 81 1017.9
20220123100405 -8 242 0.0 0.0 0.00 0.00 0.00 81 1017.9
20220123095905 -7 242 0.0 0.0 0.00 0.00 0.00 81 1018.1
20220123095403 -7 242 0.0 0.0 0.00 0.00 0.00 81 1018.1